Location: Peterborough
(44.3091°N, 78.3197°W)
Time: 17:34:35
(UTC-04:00)

Transit 2A Rocket - Pass Details

Date: 27 March 2023
Orbit: 584 x 914 km, 66.7° (Epoch: 04 June)

Event Time Altitude Azimuth Distance (km) Brightness Sun altitude
Rises 18:10:17 0° 332° (NNW) 3,543 8.7 14.1°
Reaches altitude 10° 18:14:18 10° 357° (N) 2,613 7.7 13.4°
Maximum altitude 18:17:18 14° 27° (NNE) 2,343 7.2 12.9°
Drops below altitude 10° 18:20:18 10° 57° (ENE) 2,593 7.2 12.3°
Sets 18:24:14 0° 82° (E) 3,497 7.7 11.6°
